Find Starlink 4776

NORAD ID: 53837 Int'l Des: 2022-114 Owner: SPXS Country: US Constellation: starlink operational
LEOCIRCULAR

現在のビュー

3D地球を読み込み中...

About Starlink 4776

Starlink 4776 (NORAD 53837) is a starlink constellation satellite (v1.5) launched Sep 19, 2022 by SPXS of US. It operates in LEO, CIRCULAR orbit with a mass of 305.00 kg.

Starlink 4776について

説明を読み込み中...

次回通過

Passes for default location (London). Set your location on the main map for personalized predictions.

高度履歴

Loading altitude history...

軌道要素

1 53837U 22114V 26171.34950066 .00000169 00000-0 28733-4 0 9999
2 53837 53.1595 202.8569 0001135 89.1584 270.9538 15.08835349208339
Epoch: Jun 20, 2026 • Age: 45 hours

現在のステータス

高度 542.6 km
速度 7.60 km/s
衛星直下点 39.06°N, 115.66°W
打ち上げ日 Sep 19, 2022
運用期間 3.7 years
タイプ internet

技術仕様

分類 Payload
質量 305.00 kg
乾燥質量 290.00 kg
総質量 305.00 kg
長さ 0.20 m
直径 2.80 m
スパン 9.00 m
形状 Box + pan
製造者 SPXS
バスタイプ Starlink
フェーズステータス In Orbit
所有者/国 SPXS/US

Most Searched